Regional Weather Roundup
Issued by NWS

Home | Current Version | Previous Version | Graphics & Text | Print | Product List | Glossary On
Versions: 1 2 3 4 5 6 7 8 9 10 11 12 13 14 15 16 17 18 19 20 21 22 23 24 25 26 27 28 29 30 31 32 33 34 35 36 37 38 39 40 41 42 43 44 45 46 47 48 49 50
000
ASUS43 KLOT 281903
RWRIL

ILLINOIS REGIONAL WEATHER ROUNDUP
NATIONAL WEATHER SERVICE CHICAGO/ROMEOVILLE IL
200 PM CDT WED JUN 28 2017

NOTE: "FAIR" INDICATES FEW OR NO CLOUDS BELOW 12,000 FEET WITH NO
SIGNIFICANT WEATHER AND/OR OBSTRUCTIONS TO VISIBILITY.

* THESE STATIONS ARE NOT UNDER NWS QUALITY CONTROL. THEY ALSO MAY NOT
  REPORT WEATHER SUCH AS PRECIPITATION OR FOG.

ILZ001-002-007-009-015-016-024-282000-
NORTHWEST ILLINOIS

CITY           SKY/WX    TMP DP  RH WIND       PRES   REMARKS
MOLINE         CLOUDY    80  67  64 S26G36    29.79F HX  82
STERLING*      TSTM      71  67  87 SE6       29.84F
SAVANNA*       CLOUDY    76  67  76 S20G26    29.79F
$$

ILZ003-004-008-010-011-017-018-282000-
NORTH CENTRAL ILLINOIS

CITY           SKY/WX    TMP DP  RH WIND       PRES   REMARKS
ROCKFORD       CLOUDY    72  64  76 S20G25    29.85F
FREEPORT*      CLOUDY    70  65  84 S16G26    29.83F
ROCHELLE*      CLOUDY    71  65  82 S21G29    29.85F
DE KALB*       LGT RAIN  69  64  85 S18G30    29.87F
$$

ILZ005-006-012>014-019>023-282000-
NORTHEAST ILLINOIS

CITY           SKY/WX    TMP DP  RH WIND       PRES   REMARKS
CHICAGO-OHARE  LGT RAIN  71  61  70 S18       29.87F
CHICAGO-MIDWAY CLOUDY    72  61  68 S15G25    29.89F
AURORA         CLOUDY    71  64  78 S15G24    29.87F
LANSING*       CLOUDY    74  59  59 S15G24    29.92F
JOLIET*        PTSUNNY   74  64  70 S13G20    29.89F
WAUKEGAN       CLOUDY    68  61  78 S20G26    29.86F
DUPAGE AIRPORT LGT RAIN  69  65  86 S15       29.85F
WHEELING       CLOUDY    70  62  76 S15G24    29.89F
MORRIS*        CLOUDY    74  64  71 S15G24    29.88F
ROMEOVILLE*    PTSUNNY   73  61  66 S17G26    29.88F
$$

LMZ740>746-282000-
SOUTHERN LAKE MICHIGAN

STATION/POSITION SKY/WX   TEMP    WIND        PRES    VSBY  WAVE
                          AIR SEA DIR/SP/G                  HT/PER
                          (F)     (DEG/KT/KT) (MB)    (MI)  (FT/S)
SOUTHERN BUOY              64 61  150/ 25/ 31 1011.3          4/ 5
WILMETTE HARBOR            67 62  180/ 16/ 21   N/A           4/ 4
HARRISON CRIB              68     180/ 19/ 20   N/A
BURNHAM HARBOR             72                   N/A
CALUMET HARBOR             70     150/ 12/ 17 1012.2F
BURNS HARBOR               73     170/ 11/ 20 1013.9F
MICHIGAN CITY              72     150/ 15/ 20   N/A
MICHIGAN CITY 6N           71 66  170/ 17/ 21   N/A           2/ 2
ST. JOSEPH                 71 67  170/ 19/ 27 1013.1F         2/ 3
$$

ILZ025>027-034>036-040-047-049-050-058-095>099-282000-
WEST-CENTRAL ILLINOIS

CITY           SKY/WX    TMP DP  RH WIND       PRES   REMARKS
QUINCY         MOSUNNY   84  68  58 S18G30    29.85R HX  87
GALESBURG*     CLOUDY    78  66  67 S17G25    29.84F HX  80
MACOMB*        CLOUDY    81  66  61 SW20G30   29.87F HX  83
JACKSONVILLE*  PTSUNNY   82  65  56 S23G33    29.88F HX  84
PITTSFIELD*    CLOUDY    81  67  62 S18G28    29.88F HX  83
$$

ILZ028>032-037-038-041>044-048-051>054-059>061-282000-
CENTRAL ILLINOIS

CITY           SKY/WX    TMP DP  RH WIND       PRES   REMARKS
PONTIAC        CLOUDY    83  65  54 S18G28    29.91S HX  84
BLOOMINGTON    CLOUDY    79  63  57 S23G31    29.92S HX  80
DECATUR        CLOUDY    82  63  52 S22       29.94F HX  83
PEORIA         MOSUNNY   82  66  58 S23G32    29.86F HX  84
LACON*         CLOUDY    78  67  70 S12G18    29.86F HX  80
LINCOLN*       PTSUNNY   81  65  59 S17G29    29.91R HX  82
SPRINGFIELD    CLOUDY    83  66  56 S22G33    29.90F HX  85
TAYLORVILLE    CLOUDY    82  64  53 S21G26    29.95F HX  83
$$

ILZ033-039-045-046-055>057-062-063-282000-
EAST-CENTRAL ILLINOIS

CITY           SKY/WX    TMP DP  RH WIND       PRES   REMARKS
CHAMPAIGN      PTSUNNY   83  61  47 S18G29    29.96F HX  83
RANTOUL*       PTSUNNY   83  63  50 S17G24    29.94F HX  84
MATTOON        CLOUDY    80  64  58 S15G21    30.00F HX  82
PARIS*         MOSUNNY   80  63  56 S12G24    30.02F HX  81
$$

ILZ079-100>102-282000-
SOUTHWEST ILLINOIS

CITY           SKY/WX    TMP DP  RH WIND       PRES   REMARKS
ALTON          PTSUNNY   82  66  57 S16G22    29.94F HX  85
BELLEVILLE     CLOUDY    85  66  51 S17       29.97F HX  87
CAHOKIA*       MOSUNNY   87  64  46 S15G21    29.94F HX  88
SPARTA*        PTSUNNY   82  63  51 S14G23    29.99F HX  83
$$

ILZ064>066-069>071-074>076-080>082-084>086-088>090-092>094-282000-
SOUTH-CENTRAL ILLINOIS

CITY           SKY/WX    TMP DP  RH WIND       PRES   REMARKS
CARBONDALE     MOSUNNY   83  67  58 SW15      30.01F HX  85
CAIRO*         PTSUNNY   84  64  50 S9        30.02F HX  85
EFFINGHAM*     PTSUNNY   82  64  55 SE10      30.01F HX  83
MARION         PTSUNNY   84  66  54 S12G18    30.03F HX  86
MT. VERNON     CLOUDY    83  66  56 S16       30.01F HX  85
CENTRALIA*     PTSUNNY   83  66  56 S14       29.99F HX  85
SALEM*         PTSUNNY   82  64  53 S13G18    29.99F HX  84
METROPOLIS*    CLOUDY    85  64  49 S6        30.03F HX  86
$$

ILZ067-068-072-073-078-083-087-091-282000-
SOUTHEAST ILLINOIS

CITY           SKY/WX    TMP DP  RH WIND       PRES   REMARKS
LAWRENCEVILLE  CLOUDY    81  61  50 S15       30.03F HX  82
FLORA*         MOSUNNY  N/A N/A N/A S14       30.01F
FAIRFIELD*     MOSUNNY   83  63  49 S12       30.00F HX  84
HARRISBURG*    CLOUDY    82  66  57 S12       30.03F HX  84
ROBINSON*      MOSUNNY   81  61  50 S13       30.03F HX  81
CARMI*         CLOUDY    84  65  52 S12       30.02F HX  86
$$

ABBREVIATIONS USED IN REMARKS
   TC - TEMPERATURE IN CELSIUS
  WCI - WIND CHILL INDEX
   HX - HEAT INDEX
  VSB - VISIBILITY
$$





USA.gov is the U.S. government's official web portal to all federal, state and local government web resources and services.